Wind_Speed
29 28 26 25 24 23 23 22 21 20 19 18 17 16 16 15 14 14 13 13 13 13 12 12 12 12 11 11 12 12 12 12 13 13 13 14 14 14 14 14 14 14 14
31 31 30 28 27 26 25 24 23 22 21 20 19 18 17 17 16 16 15 14 14 14 14 13 13 13 13 13 13 13 13 14 14 14 14 15 15 15 15 15 15 14 14
34 33 32 30 29 28 27 26 25 24 23 22 21 20 19 17 17 17 16 15 15 15 15 15 14 14 14 14 14 15 15 15 15 15 15 16 16 16 15 15 15 14 14
37 36 35 33 31 31 30 29 28 26 25 24 23 21 20 19 18 18 18 17 17 16 16 16 16 15 15 15 16 16 16 16 16 16 16 16 16 16 16 16 15 15 15
40 39 37 35 34 33 32 31 30 29 28 27 25 24 23 21 20 19 19 19 19 18 17 17 17 17 17 17 17 17 17 16 16 16 16 17 17 16 16 16 16 16 15
41 41 39 38 36 35 34 33 32 31 30 29 27 26 25 23 22 22 21 20 19 18 18 17 17 18 18 18 18 18 17 17 17 17 17 18 17 17 17 17 17 17 17
43 42 42 40 38 37 36 35 34 33 32 31 29 28 27 26 24 23 22 21 21 20 19 19 19 19 20 19 19 19 19 19 19 18 18 18 18 18 18 19 18 18 18
44 43 43 43 41 39 38 37 36 35 34 33 31 30 29 27 25 24 23 23 22 22 21 21 21 21 20 20 20 20 20 20 19 19 20 19 19 19 19 20 20 19 19
46 45 44 43 43 42 40 39 38 37 36 35 34 32 30 28 27 26 25 24 24 23 23 22 22 22 22 22 21 21 21 21 21 21 21 21 21 20 20 20 20 20 20
49 47 46 45 45 44 42 41 40 39 38 37 36 34 33 31 30 29 28 27 26 26 25 24 24 23 23 23 23 23 23 23 23 22 22 22 22 22 21 21 21 22 22
50 48 48 47 46 45 44 42 41 40 40 39 38 37 36 34 32 30 30 29 29 28 27 26 25 25 24 25 24 24 24 25 24 24 23 23 23 23 23 23 23 23 24
50 49 48 48 48 47 45 44 43 42 41 41 40 39 38 37 35 33 32 32 31 30 29 29 28 27 26 26 26 26 26 26 25 25 25 25 25 25 25 25 25 25 25
51 50 50 50 49 47 46 46 45 43 42 41 41 40 39 39 37 35 34 33 33 32 31 31 30 29 28 27 28 28 28 28 27 27 26 26 27 27 27 27 27 27 27
52 51 50 50 49 49 48 47 47 46 44 43 42 42 41 40 39 38 36 35 34 34 33 32 32 31 31 30 30 30 30 30 30 29 29 28 29 29 29 29 29 29 29
52 51 51 50 49 50 49 48 47 47 46 45 44 43 43 41 40 39 39 37 36 35 34 34 33 33 33 32 32 32 32 32 31 31 31 31 31 31 31 31 31 31 31
53 51 52 52 50 50 50 50 49 48 47 47 45 45 44 43 42 41 40 39 38 38 36 35 35 35 35 34 34 33 33 33 33 33 33 33 34 34 34 33 33 33 33
54 54 53 51 51 50 51 51 50 49 49 48 47 46 45 45 44 44 42 41 40 40 39 37 37 36 36 36 36 36 35 35 35 35 35 35 35 35 35 35 35 35 35
53 53 54 53 53 52 52 52 50 50 51 50 50 48 47 46 46 45 43 43 42 42 41 39 39 38 37 37 37 37 37 36 36 36 36 36 36 37 37 37 37 37 37
53 53 53 53 54 53 53 53 52 51 50 50 50 49 49 48 47 46 44 43 42 43 42 41 40 39 39 39 38 38 38 38 37 37 37 38 38 38 38 38 38 38 38
55 54 54 53 53 54 54 54 53 52 52 51 51 51 51 49 48 46 46 44 44 44 44 43 42 41 41 41 41 40 40 40 40 40 40 40 40 40 40 41 40 41 41
56 55 55 54 53 53 53 53 53 53 53 53 52 52 51 50 49 48 47 46 45 46 46 45 44 44 43 43 43 43 42 42 42 42 42 42 42 43 43 43 43 43 43
57 56 55 55 54 53 53 53 54 53 53 53 53 53 52 51 50 49 49 48 47 46 46 46 46 45 45 45 45 44 45 44 44 44 44 44 44 44 45 45 45 45 45
58 57 57 57 56 55 54 53 53 53 53 54 54 53 54 53 52 51 51 50 49 49 48 47 47 47 47 47 46 46 46 46 46 45 46 46 46 47 47 47 47 48 48
57 57 56 56 56 56 55 55 54 53 53 52 53 53 53 53 53 53 52 52 51 50 50 49 49 48 48 48 49 49 48 47 47 47 48 48 48 48 49 49 49 50 50
58 57 57 56 55 55 55 55 55 54 53 53 52 52 52 52 53 53 53 53 52 51 50 50 50 49 49 50 50 49 49 48 49 49 49 49 49 49 50 50 50 51 52
58 58 57 56 55 54 55 55 55 54 54 54 53 52 52 52 52 52 53 53 52 52 51 51 51 50 50 50 49 48 49 49 49 49 49 50 50 50 51 51 51 52 53
Wind_Direction
233 232 233 235 236 236 237 237 239 241 242 242 245 248 250 252 254 258 262 265 268 270 273 279 285 289 292 296 300 305 309 311 312 314 316 318 320 322 323 325 327 328 330
234 234 234 235 236 237 238 238 239 241 241 242 244 247 250 251 253 256 260 264 266 269 272 275 280 284 287 293 298 302 304 306 308 311 313 315 317 318 319 321 322 323 324
235 235 235 236 237 238 238 238 239 240 241 241 243 247 250 252 252 254 258 262 264 267 269 272 276 281 285 289 295 298 300 302 304 306 308 311 313 314 315 317 318 320 320
234 235 236 238 238 238 238 238 239 239 240 242 243 246 249 250 253 254 257 260 263 266 269 271 274 278 282 286 291 295 296 299 301 304 306 309 310 311 312 314 315 317 318
234 234 235 236 237 238 237 237 238 239 239 241 243 245 247 249 252 255 258 259 261 264 267 270 273 276 280 284 288 291 293 295 298 302 304 306 308 309 309 310 312 313 314
234 234 235 234 235 236 237 237 238 238 239 241 242 245 247 249 252 255 259 258 259 262 266 269 272 276 279 282 286 288 289 292 295 298 302 303 304 305 307 308 309 310 309
234 235 234 234 234 235 236 236 237 237 238 239 242 244 245 249 252 255 258 259 259 262 264 268 272 275 278 281 283 285 286 289 292 294 298 302 301 301 303 305 305 306 306
233 234 234 235 235 235 235 236 236 237 238 238 240 243 245 248 251 253 256 259 260 261 263 266 270 273 276 279 282 284 284 286 289 293 295 299 301 300 299 301 302 303 303
232 234 234 234 234 234 234 235 236 236 237 238 239 241 244 247 250 251 255 257 259 261 263 266 268 270 273 277 279 281 282 284 287 290 291 293 295 298 299 298 297 298 300
232 233 233 233 234 234 234 234 235 236 237 238 238 241 244 245 248 251 254 256 258 261 262 265 266 268 272 273 276 278 280 282 286 289 290 291 291 293 296 297 296 295 296
232 233 232 233 234 234 234 235 235 236 237 239 240 243 243 245 247 250 253 255 257 259 261 264 265 267 270 272 274 276 278 280 283 285 286 288 289 289 290 293 295 296 296
231 232 233 234 234 234 235 235 236 237 238 238 240 242 243 245 247 250 252 254 256 258 260 262 264 266 268 271 273 275 276 278 280 281 283 285 287 289 289 290 292 294 295
231 232 233 233 233 234 235 236 236 237 238 239 240 242 243 245 247 249 251 253 255 257 259 260 262 264 266 269 273 275 275 276 277 279 281 283 285 287 288 288 289 291 291
230 232 233 233 234 234 236 236 237 238 238 240 241 242 243 245 247 249 250 252 254 256 258 260 262 263 265 268 272 274 276 276 277 278 279 281 283 285 286 287 288 288 290
231 232 233 234 235 235 236 236 237 238 239 241 242 242 244 245 246 249 252 253 255 255 257 259 262 264 266 268 271 273 275 275 275 276 278 279 281 283 284 285 286 287 289
230 231 232 234 235 236 236 236 238 239 240 241 242 243 244 245 247 249 252 253 254 256 257 259 261 264 266 268 270 272 273 274 276 277 277 278 280 281 282 283 284 285 287
232 232 233 234 235 235 235 236 237 238 239 240 241 242 244 246 248 250 252 253 254 257 258 259 261 263 265 267 269 271 272 274 275 277 277 279 279 280 281 282 283 284 285
232 233 233 234 235 236 236 236 237 238 239 240 241 242 244 246 248 249 251 252 254 256 258 259 261 263 265 267 268 270 272 273 275 276 277 277 278 279 281 282 283 283 284
231 232 233 234 235 235 236 237 237 238 240 241 241 243 245 246 247 248 250 252 253 256 257 259 261 263 265 267 268 270 272 273 274 275 276 276 276 278 279 281 282 283 284
232 233 234 235 235 236 236 237 238 238 240 241 242 243 245 245 246 248 250 252 254 256 258 260 261 263 265 266 268 269 271 272 273 274 275 276 276 277 278 279 281 283 284
232 234 235 236 236 237 238 238 239 239 240 241 243 244 244 245 247 248 250 252 254 256 259 260 262 264 265 266 267 269 270 271 272 274 274 275 276 277 278 279 280 281 282
234 234 236 236 237 238 239 240 241 241 241 242 244 245 245 246 247 248 250 251 254 256 258 260 262 265 265 266 267 269 270 271 272 272 274 274 275 276 278 278 279 280 281
235 236 236 237 238 239 240 241 242 243 243 244 245 246 246 246 248 248 250 252 254 256 258 260 262 264 265 266 267 269 270 270 271 272 272 274 275 276 278 279 279 281 282
237 238 237 238 238 240 241 241 242 243 245 245 245 246 247 247 248 249 251 253 254 256 258 260 262 263 263 264 266 268 269 270 271 272 273 274 275 276 278 279 280 281 282
237 237 237 237 238 238 239 240 242 243 244 245 246 246 247 248 248 250 251 254 255 257 259 260 262 262 262 264 267 268 269 270 271 272 274 274 274 276 277 278 280 281 282
236 237 237 237 237 238 239 240 242 243 244 245 246 247 247 248 249 251 253 254 256 257 258 259 261 262 263 265 266 268 269 271 272 272 274 274 275 276 277 278 280 281 282
Height
5823 5825 5828 5831 5834 5836 5839 5841 5843 5845 5847 5849 5850 5852 5853 5854 5855 5856 5857 5858 5858 5859 5859 5859 5859 5859 5859 5859 5858 5857 5857 5856 5855 5854 5853 5852 5850 5849 5848 5846 5844 5843 5841
5816 5819 5822 5825 5828 5831 5834 5836 5839 5841 5843 5845 5846 5848 5849 5851 5852 5853 5854 5855 5855 5856 5856 5856 5857 5857 5856 5856 5856 5855 5854 5854 5853 5852 5851 5849 5848 5847 5845 5844 5842 5841 5839
5808 5812 5816 5819 5822 5825 5828 5831 5833 5836 5838 5840 5842 5844 5845 5847 5848 5849 5850 5851 5852 5853 5853 5853 5854 5854 5854 5853 5853 5852 5852 5851 5850 5849 5848 5847 5846 5844 5843 5842 5840 5839 5837
5800 5804 5808 5812 5815 5818 5821 5824 5827 5830 5833 5835 5838 5839 5841 5842 5844 5845 5846 5847 5848 5849 5849 5850 5850 5850 5850 5850 5850 5849 5849 5848 5847 5846 5845 5844 5843 5842 5840 5839 5838 5836 5835
5791 5796 5800 5804 5807 5811 5814 5818 5821 5824 5827 5830 5832 5834 5836 5838 5839 5841 5842 5843 5844 5845 5846 5846 5847 5847 5847 5847 5847 5846 5846 5845 5844 5843 5842 5841 5840 5839 5837 5836 5835 5834 5832
5782 5786 5791 5795 5799 5803 5807 5810 5814 5817 5821 5824 5826 5829 5831 5833 5835 5836 5837 5838 5839 5841 5842 5842 5843 5843 5843 5843 5843 5842 5842 5842 5841 5840 5839 5838 5837 5836 5834 5833 5832 5831 5829
5773 5777 5781 5786 5790 5795 5799 5803 5807 5810 5814 5817 5820 5823 5825 5827 5829 5831 5832 5833 5835 5836 5837 5838 5838 5839 5839 5839 5839 5838 5838 5838 5837 5836 5835 5834 5833 5832 5831 5830 5829 5827 5826
5763 5767 5772 5777 5782 5786 5791 5795 5799 5803 5806 5810 5814 5816 5819 5822 5824 5826 5827 5828 5829 5831 5832 5833 5834 5834 5834 5834 5835 5834 5834 5834 5833 5832 5831 5830 5829 5828 5827 5826 5825 5824 5822
5753 5757 5763 5768 5772 5777 5782 5786 5790 5795 5799 5802 5806 5810 5813 5815 5818 5820 5821 5823 5824 5825 5826 5827 5828 5829 5829 5830 5830 5830 5829 5829 5829 5828 5827 5826 5825 5824 5823 5822 5821 5819 5818
5742 5747 5752 5758 5763 5768 5773 5777 5781 5786 5790 5794 5798 5802 5806 5809 5811 5813 5815 5817 5818 5820 5821 5822 5823 5823 5824 5824 5824 5825 5824 5824 5824 5823 5822 5821 5820 5819 5818 5817 5816 5815 5813
5731 5737 5742 5748 5753 5758 5763 5768 5772 5777 5781 5785 5790 5794 5797 5801 5804 5806 5808 5810 5812 5813 5814 5816 5817 5817 5818 5818 5819 5819 5819 5819 5818 5818 5817 5816 5815 5814 5813 5812 5811 5809 5808
5721 5726 5732 5737 5743 5749 5754 5759 5763 5768 5772 5776 5781 5785 5789 5792 5795 5798 5801 5803 5804 5806 5808 5809 5810 5811 5812 5812 5813 5813 5813 5813 5812 5812 5811 5811 5810 5809 5808 5807 5805 5804 5802
5710 5716 5721 5727 5733 5738 5744 5749 5754 5758 5763 5767 5772 5776 5780 5783 5786 5790 5792 5795 5797 5799 5800 5801 5803 5804 5805 5805 5806 5806 5806 5806 5806 5806 5805 5804 5804 5803 5802 5800 5799 5798 5796
5699 5705 5710 5716 5722 5728 5733 5738 5744 5749 5753 5758 5762 5766 5770 5774 5778 5781 5784 5786 5789 5791 5792 5794 5795 5796 5797 5798 5799 5799 5799 5799 5799 5799 5798 5798 5797 5796 5795 5794 5793 5791 5790
5688 5694 5699 5706 5712 5717 5723 5728 5733 5738 5743 5748 5752 5756 5761 5765 5768 5772 5775 5778 5781 5783 5785 5786 5787 5788 5789 5790 5791 5791 5791 5791 5791 5791 5791 5790 5790 5789 5788 5787 5785 5784 5783
5676 5682 5688 5694 5700 5706 5712 5717 5722 5728 5733 5737 5742 5746 5751 5755 5758 5762 5765 5768 5771 5774 5776 5778 5779 5780 5781 5782 5783 5783 5783 5783 5783 5783 5783 5782 5782 5781 5780 5779 5777 5776 5775
5664 5670 5677 5683 5689 5695 5700 5706 5711 5716 5722 5727 5731 5736 5740 5744 5748 5751 5755 5758 5761 5764 5766 5769 5770 5771 5772 5773 5773 5774 5774 5774 5774 5774 5774 5773 5773 5772 5771 5770 5769 5768 5766
5652 5659 5665 5671 5677 5683 5689 5694 5699 5705 5710 5715 5720 5725 5730 5734 5738 5741 5744 5748 5751 5753 5756 5759 5760 5761 5762 5763 5764 5765 5765 5765 5765 5765 5764 5764 5764 5763 5762 5761 5760 5758 5757
5640 5647 5653 5660 5665 5671 5677 5683 5688 5694 5698 5704 5709 5714 5718 5723 5727 5731 5734 5737 5740 5743 5745 5748 5750 5751 5752 5753 5754 5755 5755 5755 5755 5755 5755 5754 5754 5753 5752 5751 5750 5749 5747
5629 5635 5641 5648 5653 5659 5665 5671 5676 5681 5687 5692 5697 5702 5707 5711 5715 5719 5723 5726 5729 5732 5734 5737 5739 5741 5742 5743 5744 5745 5745 5745 5745 5745 5744 5744 5744 5743 5742 5741 5740 5739 5737
5617 5623 5630 5635 5641 5647 5653 5659 5664 5670 5675 5680 5686 5690 5695 5699 5703 5707 5711 5715 5718 5721 5723 5725 5728 5730 5731 5732 5733 5733 5734 5734 5734 5734 5733 5733 5733 5732 5731 5730 5729 5727 5726
5605 5611 5618 5624 5630 5636 5641 5647 5652 5658 5663 5668 5673 5678 5683 5687 5691 5695 5699 5703 5706 5709 5711 5714 5716 5718 5720 5720 5721 5722 5722 5723 5723 5723 5722 5722 5721 5720 5719 5718 5717 5716 5714
5592 5599 5606 5612 5618 5624 5629 5635 5640 5645 5651 5656 5661 5666 5670 5675 5679 5683 5687 5690 5694 5696 5699 5702 5704 5706 5707 5709 5709 5710 5710 5710 5711 5711 5710 5710 5709 5708 5707 5706 5705 5703 5702
5580 5586 5593 5599 5605 5611 5617 5623 5628 5633 5638 5643 5648 5653 5658 5662 5666 5670 5674 5677 5680 5683 5686 5689 5691 5693 5694 5695 5696 5697 5697 5698 5698 5698 5698 5698 5697 5696 5695 5693 5692 5690 5688
5567 5573 5580 5586 5592 5599 5604 5610 5615 5620 5626 5631 5636 5641 5645 5650 5654 5658 5661 5665 5668 5670 5672 5675 5677 5679 5680 5682 5683 5684 5684 5684 5685 5685 5684 5684 5684 5683 5682 5680 5678 5677 5675
5554 5560 5567 5573 5579 5585 5591 5597 5603 5608 5614 5619 5624 5628 5633 5637 5641 5644 5648 5651 5655 5658 5660 5662 5664 5666 5667 5668 5669 5670 5671 5671 5671 5672 5671 5670 5670 5669 5668 5667 5665 5663 5660